Overview Statistics Trail Chart Weather Telemetry Raw packets
 

This is the latest recevied weather packets stored in our database for station/object W6MAF. If no packets are shown the sender has not sent any weather packets the latest 10 day(s).

<< 1 2 3 4 5 >>
Time Temp. Humidity Pressure Rain* Wind** Luminosity Snow
1788675952 20.56° C 26% - 0 mm 4.47 m/s, 180° - -
1788675655 20.56° C 25% - 0 mm 4.02 m/s, 173° - -
1788675357 20.56° C 25% - 0 mm 3.58 m/s, 193° - -
1788675056 20.56° C 24% - 0 mm 2.68 m/s, 181° - -
1788674853 20.56° C 23% - 0 mm 3.13 m/s, 194° - -
1788674758 20.56° C 23% - 0 mm 3.13 m/s, 194° - -
1788674461 20.56° C 23% - 0 mm 4.47 m/s, 180° - -
1788674163 20.56° C 22% - 0 mm 3.13 m/s, 166° - -
1788673865 20.56° C 21% - 0 mm 3.13 m/s, 176° - -
1788673577 20.56° C 20% - 0 mm 4.02 m/s, 180° - -
1788673267 20.56° C 19% - 0 mm 4.47 m/s, 177° - -
1788672969 20.56° C 19% - 0 mm 4.02 m/s, 193° - -
1788672671 20.56° C 18% - 0 mm 3.13 m/s, 127° - -
1788672373 20.56° C 18% - 0 mm 4.02 m/s, 174° - -
1788672076 20.56° C 17% - 0 mm 4.02 m/s, 166° - -
1788671778 20.56° C 16% - 0 mm 4.47 m/s, 155° - -
1788671477 21.11° C 16% - 0 mm 4.47 m/s, 149° - -
1788671179 21.11° C 17% - 0 mm 4.47 m/s, 176° - -
1788670882 21.11° C 16% - 0 mm 3.58 m/s, 146° - -
1788670584 21.11° C 17% - 0 mm 2.68 m/s, 131° - -
1788670286 21.11° C 17% - 0 mm 3.13 m/s, 146° - -
1788669989 21.11° C 17% - 0 mm 3.58 m/s, 173° - -
1788669688 21.11° C 17% - 0 mm 3.58 m/s, 160° - -
1788669390 21.11° C 17% - 0 mm 4.47 m/s, 170° - -
1788669092 21.67° C 18% - 0 mm 4.47 m/s, 169° - -

* Rain latest hour (hover to see other rain measurements)
** Current wind speed in m/s (hover to see current wind gust speed)